{"data":{"norad_id":63834,"intl_designator":"2025-052BQ","name":"HERMES-5","alt_names":[],"object_type":"PAYLOAD","status":"ACTIVE","operator":null,"country":"IT","launch_date":"2025-03-15","launch_site_code":"AFWTR","launch_vehicle":null,"mission":null,"orbit_class":"UNKNOWN","rcs_meters":null,"size_class":null,"mass_kg":null,"dimensions":null,"purposes":[],"wikipedia_slug":null,"has_3d_model":false,"image_url":null,"decayed_at":null,"tle_current":{"epoch":"2026-05-25T03:22:53.544000Z","epoch_age_seconds":70273,"freshness":"FRESH","line1":"1 63834U 25052BQ  26145.14089750  .00009147  00000+0  33835-3 0  9995","line2":"2 63834  97.3998  39.7311 0003273 202.2889 157.8209 15.27913102 66433","mean_motion":15.27913102,"eccentricity":0.0003273,"inclination_deg":97.3998,"raan_deg":39.7311,"arg_perigee_deg":202.2889,"mean_anomaly_deg":157.8209,"bstar":0.00033835,"rev_number":6643,"period_min":94.246197517063,"perigee_km":479.80651022111,"apogee_km":484.29718984234,"semimajor_km":6860.1888500317,"source":"CELESTRAK","updated_at":"2026-05-25T13:38:04.015428Z"}}}